Volver al catálogo

BEIDOU 3M10

ActivoNavegaciónMEO
NORAD 43582·PAYLOAD·🇨🇳 China

Lanzado Jul 29, 2018 desde Xichang Satellite Launch Center

Loading…

Próximos Pases (próximas 24 horas)

TLE

ActualizadoSource: CelesTrak SupGP

Época: Sep 14, 2026, 00:00 UTC

1 43582C 18062B   26257.00000000  .00000000  00000+0  00000+0 0  2576
2 43582  54.0821 179.2760 0006680  32.0142 257.2271  1.86228155    13

Sigue BEIDOU 3M10 en tiempo real con AllMySat

Download on the App Store